Wetbulb
67.00 65.55 60.47 56.38 50.22 47.78 44.90 48.22 51.35 52.44 48.55 51.11 51.31 50.14 49.35 49.99 48.99 44.89 58.25 65.56 64.30 63.35 67.26 72.80 74.24 73.77 73.07 72.77 72.47 72.23 71.71 71.31 70.18 69.42 68.74 68.83 68.81 68.73 68.45 68.22 68.05 67.43 67.24 67.25 67.49 67.20 66.86 66.93 67.00
64.24 62.35 57.39 55.55 47.07 43.17 45.15 51.43 51.63 52.04 51.48 51.30 50.81 50.25 49.99 51.28 57.23 59.17 61.62 65.92 65.70 65.58 68.23 71.41 74.12 73.94 73.47 73.22 72.95 72.60 71.79 71.09 70.49 69.96 70.20 70.18 70.29 69.92 69.27 69.11 69.06 68.86 68.75 68.55 68.45 68.24 67.97 67.42 67.28
61.22 58.36 52.18 51.80 46.74 44.16 45.46 51.50 52.11 54.15 54.14 50.72 50.21 53.22 53.12 53.44 59.11 59.49 61.90 66.27 64.34 65.79 68.67 70.41 74.19 73.82 73.74 73.12 73.17 72.72 72.11 71.54 71.14 70.94 71.02 70.58 70.63 70.13 69.88 69.44 69.27 69.56 69.71 69.58 69.26 69.01 68.77 68.47 67.93
58.73 58.53 55.49 48.30 46.09 49.31 50.76 53.80 55.03 53.79 50.85 50.92 51.59 51.37 54.47 58.48 58.94 59.62 65.57 65.32 64.43 65.01 67.94 71.07 74.14 74.04 73.87 73.87 73.15 73.04 72.31 71.96 71.56 71.59 71.15 70.68 70.16 69.70 69.68 69.86 69.76 69.44 69.34 69.25 69.26 69.33 69.49 68.96 68.65
59.83 54.80 48.47 44.96 46.87 50.12 52.67 54.36 52.41 51.35 50.17 50.22 51.47 51.20 52.08 57.61 60.98 63.63 66.38 65.47 63.20 64.02 66.73 70.18 74.03 74.21 73.99 73.69 72.85 72.73 72.68 72.67 72.16 71.64 70.88 70.46 69.99 69.73 69.29 69.41 69.11 69.12 68.91 68.73 68.74 68.88 69.80 69.43 69.24
53.62 50.89 42.32 40.52 44.89 49.67 51.58 53.56 51.85 51.61 52.16 50.10 51.31 51.73 51.94 57.57 59.72 64.18 66.86 65.02 65.37 65.60 66.69 69.59 73.62 74.13 73.93 73.76 73.32 73.21 73.39 72.50 71.78 70.92 69.94 69.55 69.31 69.21 69.06 69.04 68.76 68.14 68.12 68.49 68.59 69.48 69.61 69.35 69.16
51.22 47.56 43.62 43.39 47.39 48.56 51.11 52.78 50.42 50.60 50.46 51.36 53.06 50.28 52.41 55.84 58.54 60.05 61.55 64.31 65.62 67.06 68.42 70.03 71.39 72.83 73.81 73.70 73.64 73.41 71.62 70.75 70.04 69.21 67.68 66.46 66.32 66.42 66.64 66.90 67.23 67.44 67.68 67.73 67.91 68.65 69.25 69.26 68.60
53.42 49.07 44.26 45.02 44.67 46.32 51.21 51.50 50.82 50.37 51.75 53.96 56.31 51.16 50.81 55.55 58.06 57.54 61.03 63.55 65.17 67.52 68.86 69.09 69.07 70.19 69.22 69.88 72.37 71.84 70.55 69.61 68.48 66.48 66.27 66.23 66.13 65.89 65.61 65.70 65.86 66.54 66.63 66.75 67.33 67.38 68.70 68.94 68.21
53.98 45.29 43.05 45.16 45.74 48.01 51.01 49.04 53.73 54.79 51.94 53.04 53.43 54.67 56.87 58.18 57.02 56.16 55.44 56.34 59.12 63.86 64.32 65.31 65.38 64.71 64.90 65.82 67.46 69.88 69.19 67.65 66.87 66.37 66.76 65.74 62.19 61.15 62.21 63.09 64.67 65.60 66.61 67.19 67.24 67.09 68.14 67.94 67.58
50.96 45.01 46.15 50.91 50.57 48.91 51.36 51.78 53.92 51.98 52.61 50.56 52.67 56.35 58.34 57.54 56.28 55.59 54.35 54.69 55.17 58.91 59.89 61.76 61.41 62.32 62.92 65.11 63.38 63.12 62.68 62.19 62.05 62.69 61.03 59.71 58.77 58.43 60.97 63.22 65.16 65.84 66.11 66.39 66.76 66.93 67.53 67.10 63.37
50.62 47.85 52.08 52.36 53.60 52.72 51.80 52.86 55.90 52.58 51.24 53.30 51.59 52.98 55.42 55.17 55.16 55.47 55.52 55.80 56.17 58.44 56.95 57.15 58.17 60.40 61.04 61.13 60.71 61.25 60.44 58.72 59.14 60.31 59.38 58.46 59.27 58.79 58.85 58.63 59.06 59.47 62.53 61.68 62.73 63.49 63.41 63.36 61.89
47.42 52.29 53.84 53.77 55.02 53.15 52.58 55.15 53.43 53.94 53.62 56.21 55.22 55.36 55.31 53.96 53.89 55.08 54.65 54.64 52.46 53.25 54.71 55.84 57.43 57.52 57.79 58.86 59.29 59.76 58.39 58.37 57.79 58.43 58.74 58.03 57.93 57.91 57.63 57.93 58.89 58.67 59.49 59.72 59.81 60.54 61.09 61.32 61.50
49.01 51.69 53.67 54.66 54.12 54.45 55.02 52.92 52.94 53.74 56.33 57.19 54.29 55.49 55.27 54.96 54.77 55.50 55.79 54.83 51.86 52.54 54.17 56.09 56.65 56.82 57.73 58.36 58.37 58.25 58.45 58.87 58.29 58.08 58.48 58.75 58.01 57.79 57.83 59.03 60.12 60.05 59.35 59.11 58.69 59.21 59.94 60.47 61.01
51.21 51.90 52.79 53.94 54.17 54.44 52.86 53.27 54.25 55.15 57.01 55.66 53.55 53.51 54.75 55.31 54.96 53.95 51.75 51.97 51.85 53.64 54.56 56.03 57.03 58.13 58.83 58.28 58.02 58.45 58.71 58.73 58.55 58.79 59.01 59.85 58.69 58.05 58.17 59.09 59.00 57.39 57.45 57.83 58.27 58.67 58.94 59.08 59.40
48.02 45.11 48.18 50.43 52.31 51.92 53.06 49.48 50.20 53.88 54.15 52.85 53.02 52.06 53.53 54.98 55.59 53.90 54.87 53.44 53.41 55.15 56.15 56.91 57.65 58.76 58.57 57.90 58.46 58.47 58.85 59.42 59.13 59.53 59.74 59.67 58.64 58.21 58.69 57.39 56.87 57.27 57.55 57.37 57.67 57.99 58.25 58.21 58.75
43.13 42.15 39.75 47.23 50.18 51.99 49.21 44.74 50.95 53.46 52.16 51.77 52.62 52.12 51.89 53.05 53.84 55.37 53.86 53.22 53.85 56.11 56.60 56.96 60.12 58.50 58.02 57.37 57.89 58.12 58.75 58.87 59.15 59.19 59.15 59.83 59.63 59.02 57.71 56.89 56.79 57.73 57.29 56.55 56.49 56.57 56.81 56.93 57.07
39.15 38.00 39.32 43.78 48.81 48.19 46.85 44.87 51.08 52.72 51.21 50.53 51.50 51.97 50.83 51.51 51.38 52.44 53.50 53.34 53.81 56.68 56.30 56.54 57.75 57.31 57.30 56.69 57.04 58.24 58.91 58.91 59.37 59.21 59.14 59.70 60.33 60.22 57.73 56.77 57.11 57.63 56.61 55.91 55.95 55.47 56.43 56.11 56.49
36.56 36.79 41.20 41.59 45.49 46.67 45.85 45.67 50.20 52.28 51.59 50.40 51.66 52.70 51.52 51.96 51.52 52.79 53.00 53.40 54.02 55.21 55.93 56.24 56.44 56.41 56.37 57.37 57.38 57.74 58.17 58.61 59.53 59.64 59.70 59.88 59.61 59.67 57.17 56.43 57.35 57.77 56.33 55.38 54.98 54.93 56.35 55.95 56.01
42.30 40.40 40.10 43.60 47.02 45.91 44.72 45.30 48.57 51.01 49.54 50.24 51.01 51.74 50.76 51.31 51.42 52.80 53.62 53.80 55.26 55.19 55.69 56.30 56.10 56.11 57.26 56.70 55.65 56.45 56.43 57.48 58.37 59.80 60.81 60.41 60.94 59.58 58.09 57.25 57.85 57.31 55.76 55.15 55.57 55.37 55.05 55.28 56.35
42.12 40.11 40.52 44.76 47.31 44.90 44.59 44.49 47.80 49.19 49.51 50.45 51.44 50.27 49.61 49.68 51.44 53.07 53.07 53.99 55.03 55.43 56.08 56.11 56.42 56.97 57.18 55.77 57.18 57.08 56.75 58.17 58.65 59.09 61.53 62.13 61.20 60.08 60.14 58.49 57.83 56.85 55.56 54.95 55.25 55.65 54.66 55.37 56.35
41.65 40.01 40.99 41.62 45.51 46.14 44.54 42.69 45.66 49.11 49.49 50.49 50.14 49.56 49.94 50.80 51.22 52.95 53.25 53.07 54.22 55.64 55.92 56.56 56.67 57.10 56.89 56.87 57.36 57.05 57.14 57.84 57.77 57.77 58.47 59.12 59.93 60.31 60.43 59.25 58.03 56.79 55.79 54.80 54.99 55.77 55.73 54.92 56.71
38.94 45.28 44.62 43.20 40.96 37.16 43.69 33.46 41.50 45.01 46.98 48.00 49.07 48.57 49.73 50.35 51.89 53.44 53.84 51.85 54.26 55.29 56.51 57.36 57.23 56.77 56.47 57.77 56.58 56.14 55.87 55.31 56.27 56.55 57.53 57.85 59.21 60.02 59.88 58.99 57.89 56.97 56.21 55.13 55.49 56.75 55.91 56.09 55.26
41.99 46.53 44.71 43.59 40.38 38.02 41.20 35.80 39.56 43.30 44.65 46.22 47.93 47.99 48.01 49.57 51.68 52.92 52.79 53.42 53.95 54.81 56.20 56.69 56.68 55.83 57.00 57.01 56.77 57.22 55.27 55.99 56.49 56.29 56.33 56.89 57.74 59.57 59.45 58.49 57.58 56.57 56.01 55.65 56.35 56.49 56.51 56.43 56.09
46.18 42.82 41.90 40.83 38.05 32.59 39.76 37.38 38.94 41.46 44.28 46.14 48.00 48.97 49.26 49.05 50.97 51.97 52.78 53.34 53.36 54.38 55.76 55.79 55.66 56.54 56.90 56.89 56.83 56.68 55.65 55.26 55.05 55.29 55.61 55.61 56.57 58.29 58.28 58.65 57.30 56.60 55.91 57.23 56.89 56.93 56.91 57.03 57.09
42.58 37.55 30.07 26.53 29.45 30.61 40.17 36.98 41.15 45.21 47.20 48.29 48.71 48.24 48.40 49.69 51.43 52.08 52.56 52.11 52.97 53.74 55.03 54.38 54.43 55.47 56.43 57.72 57.66 56.37 56.22 55.87 54.80 55.11 55.51 54.73 55.20 55.72 56.07 56.98 56.70 56.31 56.92 57.26 57.11 57.21 56.91 56.79 58.06
40.28 39.90 32.07 26.58 27.47 32.06 40.22 36.09 41.56 47.09 49.48 49.73 49.79 48.44 49.20 49.48 51.46 52.31 52.83 52.91 53.02 53.97 54.40 55.46 54.35 54.99 54.39 56.18 57.35 56.14 57.08 55.53 54.97 57.10 55.83 55.18 55.30 55.79 56.29 57.54 57.74 58.02 58.61 58.18 57.95 57.95 57.73 57.57 57.95
39.51 37.03 42.21 34.74 35.44 32.64 35.81 40.38 45.28 46.90 47.03 48.40 48.19 49.06 48.20 49.50 51.27 52.36 52.97 52.15 52.66 53.37 53.63 54.74 54.17 53.46 53.44 55.87 56.76 56.68 57.30 56.03 55.97 56.19 55.93 55.91 56.23 57.29 57.40 57.78 57.61 58.71 58.54 58.34 58.65 58.66 60.07 60.58 60.25
39.84 41.80 33.77 31.92 26.60 25.87 33.80 36.18 38.49 42.86 45.20 47.62 47.77 47.38 47.87 49.65 51.22 52.50 52.61 51.54 52.36 53.30 53.40 53.61 55.01 54.25 53.46 55.57 56.77 58.02 58.99 57.65 56.43 56.79 56.33 56.07 56.45 57.07 57.35 57.82 57.82 58.16 58.04 58.99 58.80 59.69 61.09 61.65 61.79
36.73 38.10 35.76 37.42 35.05 29.18 27.32 33.98 42.68 44.58 46.07 47.48 47.67 48.16 48.58 50.10 51.87 52.86 51.99 51.68 51.91 52.27 51.83 51.97 54.32 53.57 54.14 55.34 55.40 59.20 59.00 58.85 57.74 57.42 56.87 57.03 56.41 57.55 57.91 58.09 58.19 58.05 58.21 58.53 58.38 60.12 61.16 61.56 61.35
42.42 39.50 39.24 34.54 31.96 34.03 34.53 37.77 45.86 45.01 45.92 48.64 48.33 49.16 48.80 50.63 52.16 52.51 52.05 50.76 50.37 50.90 50.17 51.41 53.76 53.32 54.32 55.23 55.21 58.70 59.13 58.90 58.00 57.10 56.82 56.98 57.18 57.76 58.91 59.13 58.75 58.79 58.35 58.39 59.60 59.98 60.61 60.89 60.82
MSLP
1012.50 1012.82 1013.11 1013.11 1014.19 1014.43 1013.35 1011.47 1009.73 1008.40 1007.48 1006.39 1006.15 1006.46 1006.46 1006.74 1007.29 1008.14 1006.93 1007.19 1007.56 1008.12 1009.00 1009.67 1010.12 1010.54 1010.86 1011.17 1011.41 1011.65 1011.94 1012.32 1012.57 1012.71 1012.85 1012.87 1012.91 1013.12 1013.24 1013.43 1013.51 1013.49 1013.68 1013.70 1013.69 1013.66 1013.64 1013.67 1013.74
1012.37 1012.72 1012.94 1013.34 1014.28 1014.28 1012.52 1010.44 1009.08 1007.71 1006.36 1005.97 1005.97 1006.12 1006.34 1006.67 1006.57 1006.88 1007.17 1007.26 1007.47 1007.96 1008.69 1009.23 1009.80 1010.40 1010.67 1011.02 1011.34 1011.62 1011.90 1012.11 1012.41 1012.56 1012.68 1012.83 1012.74 1012.83 1013.00 1013.11 1013.21 1013.19 1013.27 1013.34 1013.49 1013.50 1013.53 1013.53 1013.55
1012.07 1012.21 1013.18 1013.87 1014.34 1013.67 1011.85 1009.65 1008.50 1007.10 1006.18 1005.81 1006.04 1006.12 1006.28 1006.32 1006.28 1006.54 1006.43 1007.01 1007.63 1008.11 1008.37 1009.06 1009.62 1010.06 1010.41 1010.80 1011.21 1011.47 1011.78 1011.99 1012.36 1012.29 1012.55 1012.53 1012.55 1012.61 1012.72 1012.82 1012.92 1012.95 1013.04 1013.12 1013.05 1013.03 1013.23 1013.34 1013.43
1012.19 1012.80 1013.67 1013.89 1013.73 1012.15 1010.78 1009.00 1007.86 1007.05 1006.02 1005.69 1005.70 1006.22 1005.94 1005.54 1005.83 1005.79 1006.18 1006.83 1007.65 1008.11 1008.43 1008.93 1009.32 1009.78 1010.20 1010.62 1011.01 1011.28 1011.44 1011.69 1011.75 1011.95 1012.37 1012.25 1012.23 1012.28 1012.33 1012.48 1012.66 1012.70 1012.65 1012.72 1012.72 1012.79 1012.88 1013.00 1013.15
1012.34 1013.10 1013.84 1013.85 1012.91 1011.40 1010.01 1008.59 1007.56 1006.65 1005.66 1005.21 1005.41 1005.84 1005.86 1005.35 1005.53 1005.75 1006.29 1006.89 1007.39 1008.01 1008.29 1008.68 1009.07 1009.59 1010.03 1010.41 1010.70 1011.02 1011.24 1011.36 1011.53 1011.64 1011.72 1011.92 1011.97 1011.89 1011.94 1012.03 1012.19 1012.33 1012.38 1012.42 1012.43 1012.51 1012.54 1012.70 1012.80
1012.62 1013.37 1014.17 1013.62 1012.12 1010.49 1009.23 1007.86 1007.23 1006.46 1005.52 1005.35 1005.40 1005.71 1005.82 1005.53 1005.78 1006.05 1006.36 1006.87 1007.34 1007.73 1008.27 1008.59 1008.97 1009.43 1009.77 1009.99 1010.26 1010.45 1010.84 1011.06 1011.36 1011.41 1011.49 1011.60 1011.70 1011.75 1011.77 1011.82 1011.90 1012.02 1012.06 1012.14 1012.17 1012.14 1012.17 1012.40 1012.63
1012.52 1013.42 1013.55 1012.69 1011.36 1009.77 1008.21 1006.79 1006.58 1006.32 1005.70 1005.11 1005.18 1005.72 1005.93 1005.89 1005.87 1006.03 1006.35 1006.86 1007.26 1007.76 1008.24 1008.56 1008.91 1009.23 1009.61 1009.91 1010.08 1010.17 1010.58 1010.87 1011.18 1011.32 1011.34 1011.41 1011.54 1011.55 1011.60 1011.67 1011.69 1011.68 1011.72 1011.85 1011.93 1011.82 1011.85 1012.06 1012.34
1011.99 1012.96 1013.00 1012.14 1010.91 1009.27 1007.56 1006.82 1006.15 1006.07 1005.58 1005.01 1005.07 1005.67 1005.76 1005.07 1005.98 1006.48 1007.05 1007.27 1007.62 1008.05 1008.26 1008.52 1008.66 1009.04 1009.45 1009.87 1010.12 1010.41 1010.31 1010.62 1010.92 1011.13 1011.12 1011.10 1011.27 1011.38 1011.46 1011.55 1011.60 1011.41 1011.36 1011.45 1011.50 1011.50 1011.52 1011.73 1012.06
1011.74 1012.49 1012.14 1010.96 1010.11 1008.46 1007.23 1007.19 1005.82 1005.75 1005.41 1005.02 1004.78 1004.68 1004.50 1004.91 1006.14 1006.95 1007.69 1008.04 1008.28 1008.35 1008.27 1008.46 1008.70 1008.82 1009.21 1009.56 1009.96 1010.28 1010.28 1010.43 1010.66 1010.82 1010.86 1010.90 1011.09 1011.35 1011.38 1011.52 1011.39 1011.26 1011.15 1011.13 1011.00 1010.93 1011.06 1011.37 1011.68
1011.38 1011.58 1010.37 1008.54 1008.45 1007.93 1007.27 1006.81 1006.10 1005.83 1005.29 1005.06 1004.74 1004.26 1004.44 1004.74 1005.92 1006.62 1007.31 1007.66 1007.95 1008.12 1008.26 1008.42 1008.82 1008.90 1009.18 1009.40 1009.83 1010.13 1010.37 1010.42 1010.56 1010.70 1010.84 1010.94 1011.05 1011.17 1011.12 1011.10 1010.96 1010.88 1010.81 1010.67 1010.55 1010.59 1010.62 1010.85 1011.33
1010.31 1010.00 1008.24 1008.16 1007.35 1007.59 1007.32 1006.63 1005.68 1005.70 1005.13 1004.63 1004.60 1004.30 1004.87 1005.15 1005.78 1006.28 1006.68 1006.52 1006.45 1006.98 1007.62 1008.14 1008.72 1008.99 1009.20 1009.33 1009.76 1010.14 1010.37 1010.48 1010.54 1010.58 1010.71 1010.86 1010.89 1010.93 1010.94 1010.92 1010.96 1010.93 1010.87 1010.81 1010.56 1010.38 1010.50 1010.80 1011.17
1009.47 1008.97 1008.41 1007.10 1007.12 1007.53 1007.10 1006.34 1005.73 1005.10 1004.57 1003.95 1003.87 1004.08 1004.24 1005.11 1005.71 1005.72 1005.97 1006.01 1006.31 1006.62 1007.15 1007.55 1008.27 1008.73 1009.14 1009.19 1009.71 1009.98 1010.36 1010.28 1010.34 1010.28 1010.39 1010.62 1010.76 1010.81 1010.82 1010.84 1010.78 1010.75 1010.74 1010.63 1010.61 1010.51 1010.50 1010.75 1011.04
1008.92 1007.81 1007.51 1007.38 1007.26 1006.89 1006.60 1005.92 1005.01 1004.35 1003.64 1003.45 1003.53 1003.82 1003.92 1004.27 1004.72 1005.03 1005.00 1005.24 1005.83 1006.43 1006.94 1007.33 1008.02 1008.45 1008.99 1009.41 1009.70 1010.04 1009.98 1009.99 1009.85 1009.97 1009.99 1010.14 1010.34 1010.42 1010.54 1010.51 1010.40 1010.42 1010.45 1010.48 1010.62 1010.65 1010.72 1010.89 1011.04
1007.77 1007.82 1007.40 1007.18 1006.95 1006.41 1005.85 1005.15 1004.68 1003.39 1003.40 1003.22 1003.20 1003.47 1003.34 1003.67 1003.81 1004.59 1005.10 1005.09 1005.43 1005.86 1006.55 1007.20 1007.76 1008.27 1008.79 1009.22 1009.50 1009.48 1009.41 1009.36 1009.51 1009.49 1009.57 1009.67 1009.85 1010.13 1010.25 1010.28 1010.33 1010.39 1010.31 1010.31 1010.41 1010.57 1010.72 1010.88 1011.18
1007.82 1007.69 1007.00 1006.42 1006.39 1005.46 1005.47 1004.71 1003.70 1002.96 1003.07 1002.89 1002.70 1002.83 1002.82 1002.70 1003.34 1003.76 1003.49 1004.14 1004.66 1005.47 1006.33 1007.07 1007.46 1008.15 1008.51 1008.89 1008.95 1009.06 1008.93 1008.94 1009.11 1009.06 1009.09 1009.24 1009.42 1009.58 1009.88 1010.03 1010.05 1010.16 1010.19 1010.37 1010.37 1010.55 1010.76 1010.99 1011.16
1008.01 1007.73 1007.05 1005.69 1005.55 1004.40 1005.51 1003.37 1002.95 1002.42 1002.73 1002.44 1002.11 1002.02 1002.29 1002.28 1002.48 1002.57 1003.18 1003.84 1004.59 1005.29 1006.11 1006.97 1007.39 1007.95 1008.29 1008.59 1008.72 1008.77 1008.68 1008.66 1008.63 1008.60 1008.71 1008.82 1009.01 1009.14 1009.54 1009.75 1009.89 1009.92 1010.08 1010.26 1010.41 1010.55 1010.78 1010.97 1011.15
1008.40 1007.58 1006.81 1005.60 1004.97 1005.03 1004.69 1003.42 1001.60 1001.91 1002.25 1001.87 1001.70 1001.47 1001.60 1001.76 1002.18 1002.58 1003.10 1003.94 1004.78 1005.56 1006.34 1006.99 1007.36 1007.74 1008.04 1008.39 1008.60 1008.49 1008.41 1008.33 1008.18 1008.22 1008.30 1008.44 1008.51 1008.70 1009.16 1009.41 1009.58 1009.62 1009.89 1010.10 1010.22 1010.43 1010.58 1010.90 1011.02
1007.68 1007.24 1006.55 1005.15 1004.46 1004.73 1004.17 1003.58 1002.03 1001.37 1001.59 1001.35 1001.14 1000.78 1000.98 1001.19 1001.14 1001.64 1002.75 1003.74 1004.74 1005.63 1006.22 1006.75 1007.18 1007.53 1007.97 1008.24 1008.44 1008.32 1008.15 1007.95 1007.89 1007.93 1008.01 1008.12 1008.22 1008.37 1008.83 1009.10 1009.30 1009.45 1009.73 1009.88 1010.10 1010.30 1010.42 1010.60 1010.79
1006.35 1006.51 1005.87 1004.25 1004.54 1004.47 1003.91 1003.41 1002.33 1001.13 1001.38 1001.02 1000.49 1000.39 1000.41 1000.54 1001.15 1001.75 1002.81 1003.80 1004.52 1005.52 1006.11 1006.73 1007.02 1007.63 1007.90 1008.35 1008.38 1008.19 1008.11 1007.98 1007.76 1007.65 1007.68 1007.75 1007.85 1008.14 1008.45 1008.82 1008.97 1009.13 1009.47 1009.56 1009.83 1010.08 1010.37 1010.66 1010.75
1005.77 1005.97 1005.19 1004.48 1003.99 1004.55 1003.66 1003.01 1002.11 1000.91 1000.69 1000.33 999.80 999.86 1000.15 1001.13 1001.85 1002.48 1003.04 1003.74 1004.58 1005.32 1006.00 1006.60 1007.02 1007.46 1007.63 1007.88 1007.88 1007.88 1007.97 1007.77 1007.66 1007.57 1007.52 1007.57 1007.70 1007.87 1008.16 1008.49 1008.70 1008.89 1009.17 1009.39 1009.63 1009.77 1010.11 1010.44 1010.58
1005.07 1005.05 1004.78 1004.66 1004.45 1004.31 1003.70 1002.91 1001.97 1000.29 1000.15 999.40 999.13 999.45 999.98 1000.46 1001.33 1002.28 1003.06 1003.75 1004.75 1005.28 1005.88 1006.31 1006.94 1007.22 1007.36 1007.56 1007.58 1007.79 1007.82 1007.74 1007.68 1007.71 1007.67 1007.53 1007.55 1007.67 1007.86 1008.14 1008.39 1008.55 1008.83 1009.16 1009.29 1009.48 1009.71 1010.21 1010.54
1003.93 1004.01 1004.69 1004.73 1005.13 1004.74 1003.91 1003.53 1001.93 1000.96 1000.33 999.80 999.04 999.20 999.43 1000.11 1001.30 1002.17 1002.98 1004.18 1004.65 1005.11 1005.58 1006.24 1006.80 1007.02 1007.17 1007.31 1007.45 1007.73 1007.93 1008.07 1007.97 1007.96 1007.66 1007.59 1007.58 1007.70 1007.81 1007.98 1008.10 1008.26 1008.58 1008.87 1009.03 1009.17 1009.40 1009.63 1010.18
1002.71 1004.20 1004.66 1005.04 1005.19 1005.06 1004.12 1004.60 1001.76 1001.20 1000.52 999.79 999.25 998.96 999.47 1000.01 1001.16 1002.12 1002.94 1004.05 1004.67 1005.01 1005.68 1006.27 1006.68 1006.92 1007.01 1007.11 1007.30 1007.60 1007.78 1007.90 1008.03 1007.95 1007.76 1007.88 1007.79 1007.79 1007.86 1007.94 1008.04 1008.17 1008.41 1008.59 1008.83 1009.14 1009.36 1009.37 1009.64
1003.23 1004.23 1004.77 1005.25 1005.71 1005.29 1003.79 1004.28 1000.89 1000.77 999.62 998.98 998.78 998.82 999.68 1000.81 1001.57 1002.73 1003.58 1004.29 1004.81 1005.30 1005.91 1006.33 1006.63 1006.81 1006.92 1007.12 1007.24 1007.43 1007.68 1007.82 1008.15 1008.03 1007.92 1008.02 1007.97 1007.97 1007.99 1007.95 1007.99 1008.07 1008.23 1008.40 1008.71 1008.99 1009.16 1009.28 1009.37
1003.16 1004.34 1005.69 1005.56 1005.72 1004.66 1003.32 1003.37 1000.86 999.03 998.54 998.64 998.75 999.14 1000.25 1001.28 1002.11 1002.98 1003.66 1004.35 1004.90 1005.53 1006.08 1006.43 1006.63 1006.87 1007.04 1007.11 1007.14 1007.40 1007.65 1007.83 1008.03 1007.95 1007.94 1008.08 1008.13 1008.28 1008.19 1008.00 1008.01 1008.16 1008.27 1008.34 1008.65 1008.89 1009.12 1009.21 1009.24
1001.56 1003.04 1004.10 1004.84 1004.76 1003.97 1002.80 1001.89 999.02 998.16 997.59 997.66 998.34 999.16 1000.27 1001.51 1002.33 1003.07 1003.67 1004.18 1004.88 1005.51 1006.06 1006.28 1006.60 1006.82 1007.02 1006.96 1007.05 1007.46 1007.56 1007.89 1007.97 1007.91 1008.01 1008.13 1008.18 1008.24 1008.18 1008.10 1008.17 1008.26 1008.38 1008.41 1008.63 1008.91 1009.16 1009.37 1009.61
1000.20 1000.88 1002.64 1003.82 1004.00 1003.56 1002.26 1000.32 998.57 997.97 997.65 997.95 998.53 999.39 1000.47 1001.48 1002.36 1003.01 1003.61 1004.25 1004.80 1005.37 1005.88 1006.11 1006.47 1006.73 1006.81 1006.79 1007.02 1007.41 1007.54 1007.85 1007.91 1007.89 1008.06 1008.18 1008.15 1008.23 1008.20 1008.17 1008.29 1008.43 1008.52 1008.63 1008.84 1009.16 1009.48 1009.55 1009.87
998.90 1000.29 1002.40 1003.44 1003.70 1003.22 1001.79 1000.55 998.98 997.89 998.02 998.58 998.96 999.87 1000.87 1001.81 1002.67 1003.22 1003.74 1004.28 1004.76 1005.25 1005.59 1006.04 1006.27 1006.49 1006.53 1006.69 1006.87 1007.19 1007.44 1007.65 1007.78 1007.92 1008.15 1008.26 1008.28 1008.30 1008.28 1008.37 1008.50 1008.61 1008.72 1009.00 1009.21 1009.39 1009.64 1009.74 1010.16
998.98 999.62 1000.21 1001.44 1002.12 1002.01 1001.53 999.66 998.01 997.60 997.76 998.42 999.16 999.67 1000.61 1001.61 1002.42 1002.95 1003.62 1004.15 1004.59 1005.23 1005.67 1006.05 1006.37 1006.46 1006.56 1006.73 1006.80 1007.04 1007.42 1007.53 1007.71 1007.93 1008.16 1008.31 1008.40 1008.34 1008.38 1008.44 1008.73 1008.86 1009.10 1009.37 1009.61 1009.78 1009.74 1009.93 1010.33
997.39 998.22 999.19 999.89 1000.67 1000.69 1000.48 998.21 996.91 996.82 997.07 997.87 998.91 999.60 1000.50 1001.52 1002.02 1002.68 1003.39 1004.10 1004.81 1005.27 1005.79 1006.10 1006.30 1006.40 1006.43 1006.62 1006.72 1007.00 1007.25 1007.40 1007.72 1007.98 1008.22 1008.37 1008.42 1008.41 1008.37 1008.59 1008.87 1009.10 1009.37 1009.68 1009.92 1010.17 1010.15 1010.33 1010.69
Wind_Speed
7 5 2 2 4 4 5 7 3 8 3 5 3 4 6 2 6 6 2 11 9 13 12 17 21 20 18 17 17 16 15 14 14 13 12 12 12 12 11 10 10 9 10 10 10 10 10 9 8
6 4 1 3 4 1 6 5 8 9 6 3 3 2 1 2 2 3 5 8 11 12 13 16 21 19 18 17 16 15 15 15 14 14 13 14 13 12 11 12 12 12 12 11 11 11 11 10 10
7 1 4 3 3 5 6 4 6 7 11 4 5 3 2 3 1 7 5 12 9 12 13 14 21 19 18 17 16 15 15 14 15 14 16 14 13 14 14 15 15 14 15 14 14 12 12 11 11
3 3 4 3 9 8 6 7 8 9 5 4 3 2 4 5 5 9 8 13 12 10 11 14 19 19 18 17 16 16 15 15 15 15 15 13 14 13 14 15 15 15 15 16 16 16 14 13 13
2 3 1 3 7 7 6 9 6 7 5 4 6 5 4 3 3 9 11 12 13 8 8 11 19 19 18 18 17 15 14 13 15 14 13 13 15 14 15 15 16 16 17 17 18 17 16 14 13
3 4 1 5 6 5 6 11 5 6 6 2 2 5 5 4 8 8 10 9 9 12 8 9 18 18 18 17 16 15 13 11 12 10 8 8 10 12 13 14 15 17 17 18 19 18 15 13 13
6 5 5 5 9 10 7 6 2 3 6 6 4 6 4 4 6 8 8 8 8 8 9 8 10 14 17 15 14 12 12 11 11 10 9 9 10 12 13 16 17 18 18 19 20 19 16 13 14
5 4 3 6 3 11 4 5 5 3 11 1 4 4 6 7 8 8 6 7 6 6 8 9 8 8 7 6 12 13 13 12 11 11 10 9 10 10 11 12 12 16 18 19 19 20 18 16 15
4 3 7 8 8 9 3 4 4 5 4 5 7 7 6 8 11 8 5 3 3 5 6 6 7 7 7 6 7 11 12 11 11 10 10 8 3 5 7 8 11 13 16 17 19 19 18 16 17
6 6 11 11 7 7 8 8 16 5 11 6 7 6 1 16 14 15 10 10 7 9 7 7 6 7 7 5 5 5 4 3 4 5 5 3 4 5 5 8 11 12 14 14 13 16 17 15 4
7 14 22 15 15 5 7 15 17 12 17 13 12 7 5 6 11 14 13 15 18 14 7 8 7 7 7 5 4 2 2 3 3 6 5 5 4 3 3 3 3 3 7 3 5 5 3 4 4
4 12 19 25 18 6 12 14 17 19 17 18 15 5 10 9 12 16 14 14 9 9 9 9 8 7 7 4 4 4 4 4 4 5 6 4 3 4 4 3 4 3 3 4 3 2 2 4 5
7 20 18 14 11 14 17 20 22 22 22 19 9 8 14 16 17 14 14 11 7 9 9 12 9 8 6 6 4 4 5 4 5 5 5 4 4 4 3 4 3 3 3 2 3 3 3 4 4
6 9 18 15 19 18 21 23 19 25 17 18 10 12 13 17 20 11 7 10 9 10 13 11 10 8 7 6 7 5 4 5 4 4 5 6 4 4 4 4 3 4 3 3 3 3 3 3 3
6 12 16 19 21 20 9 20 22 21 14 16 17 11 12 17 14 18 20 16 14 11 13 13 10 8 8 8 6 5 4 4 4 4 5 6 5 5 5 4 4 4 3 4 3 3 2 2 2
4 2 8 6 15 16 8 26 25 21 12 16 16 11 10 15 15 20 11 10 10 12 13 9 8 8 7 6 5 4 4 4 4 4 4 5 6 5 5 3 4 4 3 3 3 3 3 3 3
3 13 13 18 10 6 9 13 21 8 8 12 13 13 11 14 10 9 9 9 11 12 11 9 8 9 8 6 4 4 5 4 4 4 4 5 6 5 5 4 4 4 3 4 3 2 3 3 3
12 9 16 19 3 11 16 14 22 19 8 11 16 19 12 13 18 11 11 11 10 9 9 8 7 7 7 3 3 2 3 3 3 3 4 5 4 5 5 4 5 4 3 3 2 3 2 2 3
13 12 18 17 5 7 9 10 17 19 9 16 16 17 13 12 2 7 11 13 13 9 9 8 9 7 4 2 2 1 3 2 2 3 5 5 4 4 5 4 4 4 4 4 4 3 4 3 2
11 9 18 14 11 5 12 15 16 17 14 16 21 14 11 3 4 7 11 13 13 12 9 8 8 7 4 2 2 2 2 3 2 2 3 4 5 6 5 5 4 5 3 4 5 4 3 2 4
17 19 18 20 6 7 11 12 17 18 8 10 8 5 6 11 12 13 15 13 10 12 10 9 8 8 4 4 2 1 1 1 2 2 2 1 3 4 5 5 5 5 4 4 4 5 5 4 1
19 18 19 17 8 9 4 7 6 8 11 7 9 7 9 8 7 12 15 10 12 9 8 8 8 7 5 6 2 2 2 1 1 2 1 1 1 2 3 4 5 5 3 5 5 4 3 4 4
19 12 12 8 8 5 15 4 6 4 10 11 11 9 9 7 10 14 14 12 7 8 8 7 7 6 6 5 4 3 1 1 1 1 2 1 2 0 2 4 4 4 2 4 5 5 4 3 4
8 3 3 6 1 8 21 5 9 6 9 6 6 6 4 7 10 9 9 9 7 7 7 7 8 6 6 4 3 4 3 3 1 0 1 1 1 2 1 3 3 2 2 4 4 4 5 4 2
11 7 3 4 4 7 8 6 16 10 10 12 11 5 8 8 11 14 15 10 8 8 8 7 7 6 4 4 5 4 5 4 3 2 1 1 1 1 2 2 3 2 1 3 4 4 4 4 2
22 16 8 7 5 5 6 8 13 9 12 10 9 7 9 9 9 12 13 11 9 9 8 8 8 5 5 5 5 3 5 3 2 1 1 2 2 3 2 3 3 3 4 3 4 3 3 3 3
12 17 12 4 1 2 4 8 9 3 1 2 6 8 9 9 11 13 11 9 9 9 9 9 7 4 5 6 5 4 4 4 3 3 2 2 3 2 3 3 3 3 4 3 5 4 5 5 5
10 10 9 4 5 3 5 5 8 3 2 3 6 8 7 7 9 10 9 9 7 8 7 6 7 8 5 6 5 4 5 5 4 3 4 3 3 2 3 3 3 3 4 5 5 6 6 6 6
7 15 3 8 6 7 2 8 9 9 9 11 9 8 11 12 12 12 9 8 8 7 7 7 6 6 5 5 3 5 5 5 4 3 3 3 3 3 3 3 5 5 5 5 7 6 6 7 8
24 19 20 9 9 2 5 13 5 8 10 9 9 8 7 8 12 10 11 9 8 8 7 7 6 6 6 4 4 4 5 5 4 4 4 3 4 3 4 5 5 5 5 5 8 8 6 7 8
Wind_Direction
131 162 212 43 50 60 266 258 265 289 281 225 107 154 196 116 152 213 336 183 130 160 160 177 185 189 183 183 186 189 190 192 197 203 212 215 214 217 223 231 236 239 247 255 266 265 264 257 257
148 161 48 80 100 77 263 243 248 244 242 4 66 66 284 175 206 115 100 191 163 151 163 176 186 189 186 189 192 193 197 200 207 212 219 227 226 226 239 245 245 245 251 253 253 261 259 256 255
139 100 86 110 162 199 226 258 280 286 287 211 149 29 173 224 174 173 235 158 134 158 165 175 184 186 189 192 195 197 202 206 216 221 231 235 226 229 235 240 245 245 248 251 258 253 254 257 251
145 25 34 120 236 257 241 278 272 285 294 240 125 149 279 193 192 185 146 144 150 164 165 177 182 187 191 193 196 200 205 213 221 232 240 240 236 235 237 242 246 248 253 258 261 262 249 248 249
40 59 113 244 248 256 254 270 278 249 231 206 159 208 243 274 163 142 146 154 160 160 163 172 184 187 190 193 195 200 211 220 228 235 239 246 249 251 249 250 248 247 252 254 256 256 252 244 247
69 101 48 251 227 249 274 256 252 251 299 261 130 143 230 311 139 172 153 157 163 161 162 174 183 187 191 192 195 197 212 222 231 229 233 254 263 267 268 262 259 259 259 261 258 256 253 249 247
128 104 230 252 280 296 217 236 218 315 292 262 153 152 261 254 210 156 152 145 155 158 159 166 178 188 193 195 197 192 197 202 206 212 226 246 264 271 272 270 268 267 266 261 259 260 258 256 245
127 112 258 239 218 267 208 332 342 351 303 24 136 222 249 214 150 109 123 153 151 155 168 172 169 176 174 185 196 196 196 200 210 215 229 240 251 257 262 268 275 272 271 269 264 259 257 250 243
145 104 248 237 183 247 256 3 234 278 245 317 215 168 237 139 123 119 120 100 111 186 182 169 171 166 165 172 196 201 200 205 215 229 236 244 234 241 257 265 268 271 267 265 258 253 249 246 235
167 172 229 225 207 244 294 309 290 327 301 269 279 269 147 147 160 162 170 175 190 197 199 184 175 168 164 167 181 178 212 217 230 229 229 246 238 228 239 255 272 275 282 278 283 251 248 239 182
189 221 233 268 247 207 274 288 285 281 286 274 265 241 168 159 175 180 186 188 195 197 174 176 175 178 167 160 173 183 203 227 236 220 217 234 238 236 254 267 279 276 277 274 292 272 236 176 173
246 231 239 246 267 274 258 274 277 279 267 276 273 223 166 169 190 193 198 203 186 175 177 161 170 161 166 156 172 187 201 218 219 218 221 216 224 232 243 244 252 263 265 272 280 269 202 185 189
220 246 248 261 272 271 273 265 263 280 279 277 268 195 189 186 201 207 208 210 172 175 166 169 161 153 166 169 175 200 208 203 211 216 232 213 220 228 225 238 243 270 268 239 259 248 200 199 194
225 254 260 258 261 259 265 274 278 271 274 276 248 222 197 195 202 205 203 209 190 169 169 163 164 167 164 178 191 203 200 214 216 220 219 219 212 222 213 236 244 251 247 268 239 225 201 200 186
251 271 278 261 260 259 280 279 268 273 264 258 266 234 215 207 203 210 208 203 180 173 157 166 163 172 175 193 197 203 217 216 224 229 229 220 211 215 208 222 244 240 230 243 237 234 200 204 203
359 286 264 234 240 256 174 265 268 267 261 260 262 259 211 220 207 216 205 179 169 151 160 161 164 176 186 193 203 217 228 232 232 233 227 217 209 199 202 217 239 239 224 219 211 195 201 207 201
262 258 267 279 219 251 177 278 274 266 224 259 266 260 217 233 222 216 180 166 155 157 155 162 167 177 190 203 224 230 245 238 234 232 222 208 203 203 197 211 230 223 212 215 198 189 161 184 212
218 237 247 251 198 220 252 259 278 281 289 263 269 269 228 222 221 195 161 145 139 148 154 156 163 174 189 185 231 264 260 263 248 241 231 207 207 207 199 218 229 203 197 215 183 168 187 157 191
228 233 247 258 213 232 239 252 274 282 287 279 276 264 234 228 151 149 144 144 143 146 147 163 149 180 145 179 215 298 258 285 278 239 235 222 204 220 206 219 223 182 199 198 188 154 178 200 141
233 245 255 282 264 246 275 268 270 283 276 271 267 256 242 104 105 134 146 151 158 150 156 153 162 169 174 165 207 179 221 259 256 281 253 222 218 227 211 202 206 186 177 183 175 172 139 174 182
224 229 247 251 301 226 278 282 278 279 287 277 246 214 174 186 177 162 161 155 149 155 160 159 168 168 177 190 129 75 316 337 2 327 287 265 233 237 193 196 192 181 172 182 181 175 163 154 150
231 221 241 256 277 270 115 288 295 279 289 285 266 217 233 200 144 159 158 155 158 164 147 150 159 163 185 179 146 162 185 277 259 264 291 322 282 160 178 192 178 170 171 186 189 183 179 142 148
238 224 244 255 257 301 270 266 254 267 287 265 268 235 231 187 157 160 154 150 162 140 154 156 156 170 188 168 144 158 168 209 316 302 61 354 348 130 156 169 145 154 166 198 185 174 183 168 151
233 229 288 265 227 252 264 160 275 227 225 264 261 294 117 130 117 115 122 140 141 132 140 145 160 188 188 165 174 165 151 137 181 212 81 3 314 30 106 128 139 127 201 162 149 155 162 178 172
192 110 277 315 198 220 233 179 239 257 245 246 249 165 138 130 125 140 155 153 143 150 151 155 166 192 175 192 172 161 154 151 186 184 166 118 126 101 151 120 118 73 105 127 134 155 157 176 186
209 185 174 199 183 214 179 236 252 242 258 231 238 143 127 137 139 158 160 156 153 156 157 163 179 183 170 193 185 149 156 161 186 155 133 170 128 150 176 118 102 90 80 108 140 113 113 107 101
198 205 178 0 280 73 209 285 322 268 306 206 149 142 155 150 156 160 159 157 154 158 167 172 177 173 186 188 173 172 157 173 161 114 108 147 120 156 158 138 108 79 89 104 109 101 102 109 99
157 155 183 188 226 219 265 254 233 257 198 192 158 163 135 133 145 161 156 158 163 164 167 171 178 185 190 171 195 172 162 185 159 127 135 136 125 141 142 137 120 97 100 103 89 98 115 112 100
161 231 153 156 184 174 180 257 211 213 186 190 214 176 164 162 167 165 156 164 164 157 158 177 182 179 187 175 201 166 149 174 168 147 156 167 146 155 148 140 125 128 119 99 91 89 101 103 104
200 204 211 196 212 208 161 257 227 209 190 169 197 178 153 166 166 158 159 151 157 168 162 179 185 186 193 181 184 159 155 154 161 152 166 169 147 143 143 129 113 108 103 104 108 104 114 93 100